TimeHST,TemperatureF,Dew PointF,Humidity,Sea Level PressureIn,VisibilityMPH,Wind Direction,Wind SpeedMPH,Gust SpeedMPH,PrecipitationIn,Events,Conditions,WindDirDegrees,DateUTC
12:53 AM,70.0,66.0,87,30.05,10.0,Calm,Calm,-,N/A,,Mostly Cloudy,0,2013-09-29 10:53:00
1:53 AM,71.1,66.9,87,30.03,10.0,West,4.6,-,0.00,,Overcast,280,2013-09-29 11:53:00
2:53 AM,70.0,64.9,84,30.01,10.0,WSW,5.8,-,N/A,,Mostly Cloudy,250,2013-09-29 12:53:00
3:53 AM,70.0,64.0,81,29.99,10.0,SW,8.1,-,0.02,,Overcast,220,2013-09-29 13:53:00
4:15 AM,70.0,64.9,84,30.02,3.0,SE,8.1,24.2,0.00,Rain,Heavy Rain,140,2013-09-29 14:15:00
4:23 AM,70.0,64.9,84,30.02,2.0,South,8.1,-,0.10,Rain,Heavy Rain,180,2013-09-29 14:23:00
4:39 AM,70.0,64.9,84,30.02,6.0,WSW,8.1,-,0.25,Rain,Light Rain,240,2013-09-29 14:39:00
4:53 AM,70.0,66.0,87,30.01,7.0,WSW,9.2,-,0.26,Rain,Light Rain,250,2013-09-29 14:53:00
5:25 AM,69.1,66.0,90,30.02,10.0,West,8.1,-,0.00,,Overcast,280,2013-09-29 15:25:00
5:53 AM,69.1,66.0,90,30.02,10.0,WSW,9.2,-,0.00,Rain,Light Rain,250,2013-09-29 15:53:00
6:27 AM,70.0,66.0,87,30.03,10.0,WSW,11.5,-,0.01,Rain,Light Rain,240,2013-09-29 16:27:00
6:53 AM,70.0,66.0,87,30.03,7.0,WSW,9.2,-,0.01,,Overcast,250,2013-09-29 16:53:00
7:53 AM,70.0,68.0,93,30.05,6.0,WNW,8.1,-,0.00,Rain,Light Rain,290,2013-09-29 17:53:00
8:31 AM,73.0,68.0,84,30.06,10.0,West,8.1,-,0.00,,Overcast,270,2013-09-29 18:31:00
8:53 AM,73.0,66.0,79,30.06,10.0,West,6.9,-,0.00,,Mostly Cloudy,280,2013-09-29 18:53:00
9:16 AM,73.9,66.0,76,30.07,2.0,SSW,6.9,-,0.01,Rain,Heavy Rain,200,2013-09-29 19:16:00
9:27 AM,73.9,66.0,76,30.07,2.0,SSW,8.1,-,0.08,Rain,Rain,200,2013-09-29 19:27:00
9:53 AM,73.9,68.0,82,30.07,2.0,SW,6.9,-,0.10,Rain,Light Rain,230,2013-09-29 19:53:00
10:12 AM,72.0,68.0,87,30.06,10.0,West,10.4,-,0.02,Rain,Light Rain,260,2013-09-29 20:12:00
10:53 AM,72.0,69.1,91,30.05,10.0,West,9.2,-,0.02,,Mostly Cloudy,260,2013-09-29 20:53:00
11:00 AM,77.0,69.1,76,30.05,10.0,West,11.5,-,N/A,,Mostly Cloudy,270,2013-09-29 21:00:00
11:53 AM,77.0,66.0,69,30.02,10.0,Calm,Calm,-,N/A,,Mostly Cloudy,0,2013-09-29 21:53:00
12:53 PM,80.1,71.1,74,29.99,10.0,NNE,5.8,-,0.00,,Mostly Cloudy,30,2013-09-29 22:53:00
1:53 PM,81.0,71.1,72,29.97,10.0,NE,4.6,-,N/A,,Mostly Cloudy,40,2013-09-29 23:53:00
2:53 PM,80.1,71.1,74,29.96,10.0,ENE,8.1,-,N/A,,Mostly Cloudy,70,2013-09-30 00:53:00
3:53 PM,82.0,72.0,71,29.96,10.0,NE,9.2,-,N/A,,Mostly Cloudy,50,2013-09-30 01:53:00
4:53 PM,79.0,71.1,77,29.97,10.0,East,4.6,-,N/A,,Mostly Cloudy,80,2013-09-30 02:53:00
5:53 PM,77.0,72.0,84,29.99,10.0,East,4.6,-,N/A,,Mostly Cloudy,100,2013-09-30 03:53:00
6:53 PM,73.9,72.0,93,30.00,10.0,SSE,10.4,-,0.00,Rain,Light Rain,150,2013-09-30 04:53:00
7:53 PM,73.0,73.0,100,30.02,10.0,WSW,9.2,-,0.00,,Mostly Cloudy,250,2013-09-30 05:53:00
8:30 PM,73.0,72.0,96,30.04,10.0,Calm,Calm,-,0.00,Rain,Light Rain,0,2013-09-30 06:30:00
8:37 PM,73.0,71.1,93,30.04,10.0,WNW,4.6,-,0.00,,Mostly Cloudy,290,2013-09-30 06:37:00
8:53 PM,73.0,72.0,96,30.04,10.0,SSW,5.8,-,0.00,,Mostly Cloudy,210,2013-09-30 06:53:00
9:10 PM,72.0,72.0,100,30.05,10.0,SW,8.1,-,0.00,Rain,Light Rain,220,2013-09-30 07:10:00
9:42 PM,72.0,71.1,97,30.05,10.0,SW,6.9,-,0.01,,Overcast,230,2013-09-30 07:42:00
9:53 PM,72.0,70.0,93,30.05,5.0,West,5.8,-,0.01,Rain,Light Rain,280,2013-09-30 07:53:00
10:42 PM,71.1,70.0,96,30.06,6.0,Calm,Calm,-,0.06,Rain,Rain,0,2013-09-30 08:42:00
10:53 PM,70.0,70.0,100,30.05,7.0,West,4.6,-,0.08,Rain,Light Rain,270,2013-09-30 08:53:00
11:21 PM,70.0,70.0,100,30.04,10.0,WSW,11.5,-,0.01,,Overcast,250,2013-09-30 09:21:00
11:53 PM,71.1,66.9,87,30.04,7.0,WSW,4.6,-,0.01,Rain,Rain,250,2013-09-30 09:53:00